STARLINK-3959 (52564 NORAD) Tracking and Keplerian Element Data

This shows tracking and keplerian element data for the satellite.

Feedback or suggestion? Click here.




ElementValue
Catalog52564
NameSTARLINK-3959
Epoch Orbit130
Epoch Day192.91667824
Epoch Year2022
RAAN15.1327
Inclination53.2186
Eccentricity0.0001787
Argument of Perigee47.9426
Mean Anonmoly30.934
Mean Motion15.08829915
Decay Rate0.00045867
L11 52564U 22051AH 22192.91667824 .00045867 00000+0 28821-2 0 9993
L22 52564 53.2186 15.1327 0001787 47.9426 30.9340 15.08829915 1304

Live tracking and technical data element details for STARLINK-3959 (NORAD 52564). STARLINK-3959 can be tracked NOW for your location showing map with azimuth and elevation plus other details from your city location.

Track the satellite on the map from your city or location and see movement details for azimuth, elevation, latitude, longitude, range, height, and movement on the map or in text.







IsCatalogInMostPopularTable: catalog: 52564, numindb: 7
Update: records affected: 1



GetName: 52564 STARLINK-3959

Hit Count: updated at: Sun, 14 Aug 2022 00:28:39 GMT